User: anonymous   Login
Location: Kott?ru
(16.6209°N, 80.6208°E)
Time: 12:17:57
(UTC+00:00)
Language:

Meteor 1-31 Rocket - Orbit

View from above orbital plane
View from above orbital plane
View from above satellite
View from above satellite

Ground track
Ground track

The orbit data is extracted from the following two-line orbital elements,

1 12586U 81065B   20330.90165667 +.00000776 +00000-0 +50457-4 0  9995
2 12586 097.6380 313.0732 0018077 200.1337 159.9182 15.10850331142194
Epoch (UTC): 25 November 2020 21:38:23
Eccentricity: 0.0018077
inclination: 97.6380°
perigee height: 521 km
apogee height: 546 km
right ascension of ascending node: 313.0732°
argument of perigee: 200.1337°
revolutions per day: 15.10850331
mean anomaly at epoch: 159.9182°
orbit number at epoch: 14219

The dashed part of the orbit path shows where the satellite is in the earth's shadow,  

DLR